Hourly Data Report for November 20, 2019

All times are specified in Local Standard Time (LST). Add 1 hour to adjust for Daylight Saving Time where and when it is observed.

LUNENBURG
NOVA SCOTIA
Current Station Operator: ECCC - MSC

44°21'36.094" N
64°17'46.082" W
3.80 m
8203210
XLB

Download Data

Hourly Data (November 2019)
Hourly Data Report for November 20, 2019
TIME Temp Definition
°C
Dew Point Definition
°C
Rel Hum Definition
%
Wind Dir Definition
10's deg

Wind Spd Definition
km/h
Visibility Definition
km
Stn Press Definition
kPa
Hmdx Definition


Wind Chill Definition


Weather Definition


00:00 4.4 3.2 92 28 10   100.86     LegendNANA
01:00 4.3 3.2 92 31 11   100.87     LegendNANA
02:00 4.4 3.8 95 34 6   100.89     LegendNANA
03:00 3.9 3.0 94 36 11   100.85     LegendNANA
04:00 3.6 2.4 92 34 9   100.84     LegendNANA
05:00 3.0 1.6 91 1 12   100.90     LegendNANA
06:00 2.8 1.3 90 33 13   100.86     LegendNANA
07:00 2.7 1.0 89 36 7   100.93     LegendNANA
08:00 2.5 0.8 88 36 9   100.88     LegendNANA
09:00 2.8 0.7 86 1 14   100.81     LegendNANA
10:00 3.2 1.2 86 1 14   100.73     LegendNANA
11:00 3.4 1.0 84 2 22   100.66     LegendNANA
12:00 4.3 1.5 82 2 20   100.70     LegendNANA
13:00 4.4 1.4 81 2 16   100.72     LegendNANA
14:00 4.3 2.0 85 2 17   100.63     LegendNANA
15:00 4.5 1.9 83 1 18   100.66     LegendNANA
16:00 4.6 2.0 83 36 12   100.68     LegendNANA
17:00 4.6 1.8 82 34 12   100.64     LegendNANA
18:00 4.6 1.7 82 33 15   100.67     LegendNANA
19:00 4.4 1.5 82 33 16   100.64     LegendNANA
20:00 4.4 1.5 82 33 15   100.64     LegendNANA
21:00 4.4 1.8 84 34 13   100.66     LegendNANA
22:00 4.4 2.2 85 34 15   100.62     LegendNANA
23:00 4.4 2.5 87 33 15   100.64     LegendNANA

Notes on Data Quality.

Legend

  • E = Estimated
  • M = Missing
  • NA = Not Available
Date modified: